TimePST,TemperatureF,Dew PointF,Humidity,Sea Level PressureIn,VisibilityMPH,Wind Direction,Wind SpeedMPH,Gust SpeedMPH,PrecipitationIn,Events,Conditions,WindDirDegrees,DateUTC
12:51 AM,50.0,30.0,46,30.24,10.0,Calm,Calm,-,N/A,,Clear,0,2013-02-25 08:51:00
1:51 AM,50.0,26.1,39,30.23,10.0,Calm,Calm,-,N/A,,Clear,0,2013-02-25 09:51:00
2:51 AM,50.0,19.0,29,30.21,10.0,Calm,Calm,-,N/A,,Clear,0,2013-02-25 10:51:00
3:51 AM,48.9,18.0,29,30.21,10.0,Calm,Calm,-,N/A,,Clear,0,2013-02-25 11:51:00
4:51 AM,48.9,17.1,28,30.22,10.0,ESE,3.5,-,N/A,,Clear,120,2013-02-25 12:51:00
5:51 AM,46.9,19.9,34,30.21,10.0,Calm,Calm,-,N/A,,Clear,0,2013-02-25 13:51:00
6:51 AM,46.0,21.0,37,30.22,10.0,NNW,4.6,-,N/A,,Partly Cloudy,340,2013-02-25 14:51:00
7:51 AM,51.1,19.9,29,30.23,10.0,Calm,Calm,-,N/A,,Partly Cloudy,0,2013-02-25 15:51:00
8:51 AM,54.0,24.1,31,30.22,10.0,South,4.6,-,N/A,,Partly Cloudy,190,2013-02-25 16:51:00
9:51 AM,59.0,24.1,26,30.22,10.0,WSW,3.5,-,N/A,,Partly Cloudy,250,2013-02-25 17:51:00
10:51 AM,63.0,16.0,16,30.21,10.0,WSW,4.6,-,N/A,,Partly Cloudy,240,2013-02-25 18:51:00
11:51 AM,66.0,6.1,9,30.19,10.0,SSW,6.9,-,N/A,,Partly Cloudy,210,2013-02-25 19:51:00
12:51 PM,68.0,1.9,7,30.15,10.0,Variable,3.5,-,N/A,,Partly Cloudy,0,2013-02-25 20:51:00
1:51 PM,66.9,5.0,9,30.14,10.0,West,11.5,-,N/A,,Partly Cloudy,280,2013-02-25 21:51:00
2:51 PM,64.0,30.9,29,30.14,10.0,WNW,10.4,-,N/A,,Partly Cloudy,290,2013-02-25 22:51:00
3:51 PM,61.0,37.9,42,30.13,10.0,WNW,10.4,-,N/A,,Partly Cloudy,300,2013-02-25 23:51:00
4:51 PM,61.0,42.1,50,30.11,10.0,NNW,9.2,-,N/A,,Partly Cloudy,330,2013-02-26 00:51:00
5:51 PM,57.9,45.0,62,30.11,10.0,WNW,8.1,-,N/A,,Partly Cloudy,300,2013-02-26 01:51:00
6:51 PM,57.0,48.0,72,30.13,10.0,NW,3.5,-,N/A,,Partly Cloudy,310,2013-02-26 02:51:00
7:51 PM,57.0,46.9,69,30.13,10.0,Calm,Calm,-,N/A,,Partly Cloudy,0,2013-02-26 03:51:00
8:51 PM,55.9,46.0,69,30.14,10.0,Calm,Calm,-,N/A,,Partly Cloudy,0,2013-02-26 04:51:00
9:51 PM,54.0,44.1,69,30.14,10.0,Calm,Calm,-,N/A,,Partly Cloudy,0,2013-02-26 05:51:00
10:51 PM,53.1,41.0,64,30.13,10.0,Calm,Calm,-,N/A,,Clear,0,2013-02-26 06:51:00
11:51 PM,51.1,37.0,59,30.12,10.0,Calm,Calm,-,N/A,,Clear,0,2013-02-26 07:51:00